Overview Statistics Trail Chart Weather Telemetry Raw packets
 

This is the latest recevied weather packets stored in our database for station/object KE8WMS. If no packets are shown the sender has not sent any weather packets the latest 10 day(s).

<< 92 93 94 95 96 97 98 >>
Time Temp. Humidity Pressure Rain* Wind** Luminosity Snow
1777142793 8.33° C 99% 1009.6 hPa 0 mm - 125 W/m² -
1777142491 8.89° C 99% 1009.7 hPa 0 mm - 104 W/m² -
1777142189 8.33° C 99% 1009.5 hPa 0 mm - 120 W/m² -
1777141886 8.89° C 99% 1009.5 hPa 0 mm - 100 W/m² -
1777141584 8.33° C 99% 1009.6 hPa 0 mm - 89 W/m² -
1777141283 8.89° C 99% 1009.6 hPa 0 mm - 94 W/m² -
1777140979 8.89° C 99% 1009.2 hPa 0 mm - 104 W/m² -
1777140676 8.89° C 99% 1009.4 hPa 0 mm - 131 W/m² -
1777140372 9.44° C 99% 1009.1 hPa 0 mm - 136 W/m² -
1777140070 9.44° C 99% 1009.3 hPa 0 mm - 124 W/m² -
1777139768 9.44° C 99% 1009.4 hPa 0 mm - 139 W/m² -
1777139463 9.44° C 99% 1009.2 hPa 0 mm - 118 W/m² -
1777139158 9.44° C 99% 1009.3 hPa 0 mm - 131 W/m² -
1777138855 9.44° C 99% 1009 hPa 0 mm - 156 W/m² -
1777138551 10° C 99% 1008.8 hPa 0 mm - 222 W/m² -
1777138247 10° C 99% 1009 hPa 0 mm - 168 W/m² -
1777137944 9.44° C 99% 1008.7 hPa 0 mm - 251 W/m² -
1777137639 9.44° C 99% 1008.6 hPa 0 mm - 298 W/m² -
1777137337 10° C 99% 1008.8 hPa 0 mm - 285 W/m² -
1777137034 9.44° C 99% 1008.7 hPa 0 mm - 297 W/m² -
1777136730 9.44° C 99% 1008.8 hPa 0 mm - 336 W/m² -
1777136428 8.89° C 99% 1008.8 hPa 0 mm - 260 W/m² -
1777136125 8.89° C 99% 1008.9 hPa 0 mm - 212 W/m² -
1777135821 8.89° C 99% 1009 hPa 0 mm - 149 W/m² -
1777135517 8.89° C 99% 1008.8 hPa 0 mm - 193 W/m² -

* Rain latest hour (hover to see other rain measurements)
** Current wind speed in m/s (hover to see current wind gust speed)